This demonstration page uses our WeatherBlox Daily Observations layout. Learn more.

Left ArrowRight Arrow

Hourly Observations for April 6, 2020

Temp ( °F °C ) Dew Point ( °F °C ) Humidity (%) Winds ( mph kmh ) Pressure ( in mb ) Visibility ( mi km ) Precip ( " mm )
12:54 am 00:54 Cloudy 54 12.2 44 6.7 69 69 SSE 13 20 29.94 1014 9 14.48406 0 0
1:54 am 01:54 Cloudy 54 12.2 44 6.7 69 69 SSE 15 24 29.93 1013 9 14.48406 0 0
2:54 am 02:54 Cloudy 53 11.7 45 7.2 74 74 SSE 14 22 29.9 1013 8 12.87472 0 0
3:54 am 03:54 Cloudy 53 11.7 45 7.2 74 74 S 14 22 29.88 1012 8 12.87472 0 0
4:54 am 04:54 Cloudy 54 12.2 47 8.3 77 77 S 13 20 29.85 1011 8 12.87472 0 0
5:54 am 05:54 Cloudy 54 12.2 48 8.9 80 80 S 14 22 29.85 1011 8 12.87472 0 0
6:30 am 06:30 Cloudy 54 12.2 49 9.4 83 83 SSE 12 19 29.86 1011 8 12.87472 0 0
6:43 am 06:43 Cloudy 54 12.2 49 9.4 83 83 SSE 12 19 29.87 1012 8 12.87472 0 0
6:54 am 06:54 Cloudy 55 12.8 49 9.4 80 80 SSE 9 15 29.86 1011 8 12.87472 0 0
7:23 am 07:23 Cloudy 55 12.8 49 9.4 80 80 SE 9 15 29.86 1011 8 12.87472 0 0
7:54 am 07:54 Cloudy 55 12.8 50 10 83 83 SSE 7 11 29.86 1011 7 11.26538 0 0
8:02 am 08:02 Cloudy 56 13.3 50 10 81 81 SSE 7 11 29.87 1011 7 11.26538 0 0
8:23 am 08:23 Cloudy 56 13.3 50 10 81 81 SSE 8 13 29.87 1011 8 12.87472 0 0
8:54 am 08:54 Cloudy 57 13.9 51 10.6 81 81 SSE 14 22 29.85 1011 9 14.48406 0 0
9:19 am 09:19 Cloudy 58 14.4 52 11.1 81 81 SSE 18 30 29.83 1010 10 16.0934 0 0
10:54 am 10:54 Cloudy 61 16.1 53 11.7 75 75 S 15 24 29.81 1010 10 16.0934 0 0
11:54 am 11:54 Cloudy 64 17.8 54 12.2 70 70 S 14 22 29.81 1010 10 16.0934 0 0
12:01 pm 12:01 Cloudy 64 17.8 54 12.2 70 70 S 15 24 29.8 1009 10 16.0934 0 0
12:38 pm 12:38 Cloudy 64 17.8 54 12.2 70 70 S 14 22 29.78 1008 10 16.0934 0 0
12:54 pm 12:54 Cloudy 64 17.8 54 12.2 70 70 S 12 19 29.79 1009 10 16.0934 0 0
1:26 pm 13:26 Cloudy 67 19.4 54 12.2 63 63 SSW 13 20 29.76 1008 10 16.0934 0 0
1:54 pm 13:54 Cloudy 68 20 54 12.2 61 61 S 18 30 29.77 1008 10 16.0934 0 0
2:54 pm 14:54 Cloudy 68 20 54 12.2 61 61 S 14 22 29.76 1008 10 16.0934 0 0
3:54 pm 15:54 Mostly Cloudy 71 21.7 54 12.2 55 55 SSE 12 19 29.73 1007 10 16.0934 0 0
4:54 pm 16:54 Mostly Sunny 74 23.3 54 12.2 50 50 SSE 13 20 29.7 1006 10 16.0934 0 0
5:54 pm 17:54 Sunny 75 23.9 55 12.8 50 50 SSE 17 28 29.68 1005 10 16.0934 0 0
6:54 pm 18:54 Sunny 74 23.3 54 12.2 50 50 SSE 13 20 29.68 1005 10 16.0934 0 0
7:54 pm 19:54 Sunny 70 21.1 54 12.2 57 57 SSE 12 19 29.67 1005 10 16.0934 0 0
8:54 pm 20:54 Clear 66 18.9 54 12.2 65 65 S 12 19 29.7 1006 10 16.0934 0 0
9:54 pm 21:54 Clear 64 17.8 54 12.2 70 70 S 12 19 29.71 1006 10 16.0934 0 0
10:54 pm 22:54 Clear 59 15 53 11.7 81 81 S 10 17 29.72 1006 10 16.0934 0 0
11:54 pm 23:54 Clear 62 16.7 55 12.8 78 78 S 9 15 29.71 1006 10 16.0934 0 0

Powered by AerisWeather